Location: ??????
(41.3164°N, 22.6615°E)
Time: 08:50:53
(UTC+00:00)

SL-08 RB Rocket - Pass Details

Date: 16 October 2021
Orbit: 646 x 684 km, 97.8° (Epoch: 07 December)

Event Time Altitude Azimuth Distance (km) Brightness Sun altitude
Rises 17:14:29 0° 168° (SSE) 2,959 6.9 -17.2°
Reaches altitude 10° 17:16:40 10° 169° (S) 2,057 6.1 -17.6°
Maximum altitude 17:21:10 83° 257° (WSW) 670 3.7 -18.5°
Drops below altitude 10° 17:25:45 10° 346° (NNW) 2,096 6.5 -19.3°
Sets 17:28:00 0° 347° (NNW) 3,020 7.3 -19.7°
